Weather in Dibba

United Arab Emirates     25°37′20″N   56°16′23″E
temp.,
°C
wind,
m/s
gust,
m/s
humid.,
%
clouds,
%
prec.,
mm/h
press.,
hPa
HPBL,
m
17 september, fri
fri1701:00+31nw22305 0.0 100212
04:00+28ene00435 0.0 100215
07:00+32wsw22245 0.0 100323
10:00+38ese11151 0.0 10041001
13:00+40nnw23151 0.0 10012285
16:00+39nw33201 0.0 10001501
19:00+33w11330 0.0 100214
22:00+31wsw22430 0.0 100313
18 september, sat
sat1801:00+29nnw11455 0.0 100311
04:00+27nnw11490 0.0 100312
07:00+30ese11420 0.0 100527
10:00+35e21310 0.0 1006819
13:00+37e43330 0.0 10041374
16:00+36e42345 0.0 1003971
19:00+31ese22535 0.0 1004161
22:00+29e11635 0.0 100664
19 september, sun
sun1901:00+28e01665 0.0 100516
04:00+26e22761 0.0 100548
07:00+26ese23836 0.0 1008309
10:00+31e33565 0.0 1008682
13:00+36e423944 0.0 10061061
16:00+35e42435 0.0 1005798
19:00+29se22650 0.0 1006197
22:00+28ese11700 0.0 100787
20 september, mon
mon2001:00+28ene11680 0.0 100619
04:00+26ese22800 0.0 100641
07:00+26se22830 0.0 1008197
10:00+34ese11390 0.0 1007693
13:00+39nne13210 0.0 10051882
16:00+38nw33240 0.0 10031034
19:00+32wsw11370 0.0 100445
22:00+30w22390 0.0 100518
21 september, tue
tue2101:00+29w22360 0.0 100411
04:00+27wsw11410 0.0 100414
07:00+29wsw22360 0.0 100553
10:00+36w24190 0.0 1005875
13:00+40wnw45170 0.0 10031828
16:00+38wnw55240 0.0 10011251
19:00+32w44400 0.0 100294
22:00+29w44560 0.0 100374